[[{"header":{"parameterUnit":"m.s-1","parameterCategory":1,"la1":30.2991,"la2":30.254,"lo1":-89.0895,"lo2":-89.0444,"dy":0.0017,"dx":0.0017,"nx":28,"ny":28,"refTime":"2025-01-28T09:00:00:Z","depth":0,"parameterNumber":2,"parameterNumberName":"U-component_of_WINDS"},"data":[0,0,0,0,0,0,0,0,0,0,0,0,0,0,0,0,0,0,0,0,0,0,0,0,0,0,0,0,0,0,0,0,0,0,0,0,0,0,0,0,0,0,0,0,0,0,0,0,0,0,0,0,0,0,0,0,0,0,0.4154,0.4156,0,0.4296,0.4298,0.4299,0.4367,0.4366,0.4366,0.4366,0.4513,0.4517,0.4521,0,0,0,0,0,0,0,0,0,0,0,0,0,0.3942,0.3945,0.4154,0.4156,0.4158,0.4296,0.4298,0.43,0.4367,0.4366,0.4366,0.4366,0.4512,0.4517,0.4522,0,0,0,0,0,0,0,0,0,0,0,0,0,0.4054,0.3946,0.4154,0.4208,0.4214,0.4295,0.4298,0.43,0.4367,0.4366,0.4366,0.4366,0.4511,0.4516,0.4522,0.4562,0,0,0.4541,0.4543,0,0,0,0,0,0,0,0,0.4047,0.4062,0.4198,0.4204,0.4211,0.4313,0.4277,0.4388,0.4367,0.4309,0.4366,0.4366,0.4447,0.4458,0.4485,0.4569,0.4575,0.4541,0.4545,0.4547,0.4549,0,0,0,0,0,0,0,0.404,0.4056,0.421,0.42,0.4208,0.4225,0.4241,0.4298,0.4377,0.4314,0.4319,0.4335,0.4451,0.4479,0.4489,0.4577,0.4541,0.4546,0.455,0.4552,0.4699,0.47,0,0,0,0,0,0,0.4023,0.4049,0.4206,0.4215,0.4127,0.4229,0.4246,0.4281,0.4376,0.4391,0.4335,0.4337,0.4469,0.4482,0.4495,0.4547,0.4547,0.4553,0.4556,0.4699,0.47,0.47,0,0,0,0,0,0,0.4018,0.4036,0.42,0.4133,0.4155,0.4233,0.4271,0.4284,0.4312,0.4392,0.4407,0.4349,0.447,0.4486,0.4544,0.4553,0.4556,0.4561,0.4699,0.4699,0.47,0.4652,0,0,0,0,0,0,0.4012,0.4034,0.405,0.4133,0.4159,0.4247,0.4271,0.4286,0.4322,0.4327,0.441,0.4424,0.4471,0.4535,0.455,0.4561,0.4566,0.4698,0.4699,0.47,0.4653,0.4651,0.4649,0,0,0,0,0,0.4004,0.4031,0.405,0.4069,0.418,0.4247,0.4262,0.4315,0.4323,0.4339,0.439,0.4421,0.4549,0.454,0.4558,0.4571,0.4698,0.4699,0.47,0.4654,0.4651,0.4649,0,0,0,0,0,0,0.3948,0.4043,0.4065,0.412,0.4175,0.4258,0.4281,0.4311,0.4365,0.4367,0.4432,0.445,0.4502,0.4543,0.4531,0.4614,0.4627,0.4631,0.4586,0.4584,0.4582,0.4571,0.4571,0,0,0,0,0,0.3941,0.3988,0.4069,0.411,0.4136,0.4203,0.4235,0.4271,0.4331,0.4354,0.441,0.4467,0.452,0.4554,0.4608,0.4659,0.4678,0.4677,0.4674,0.4672,0.4675,0.4705,0.4706,0.4702,0.4702,0.4702,0,0,0.393,0.3988,0.4013,0.41,0.4147,0.4194,0.4223,0.4271,0.4307,0.4362,0.442,0.4463,0.4531,0.4585,0.4612,0.4621,0.468,0.4673,0.4671,0.4675,0.4706,0.4706,0.4706,0.4703,0.4703,0.4703,0,0,0.3932,0.398,0.402,0.4065,0.4135,0.418,0.4189,0.4268,0.4298,0.4357,0.4399,0.4443,0.4533,0.458,0.4615,0.4634,0.4664,0.4649,0.4638,0.4666,0.4667,0.4667,0.4674,0.4676,0.4652,0.4652,0.4652,0,0.3909,0.3981,0.4036,0.4082,0.4119,0.417,0.421,0.4252,0.4336,0.436,0.4368,0.4482,0.4532,0.4598,0.4602,0.4629,0.4642,0.4641,0.4662,0.4663,0.4665,0.4672,0.4674,0.465,0.465,0.465,0.465,0,0.3949,0.3998,0.4021,0.41,0.414,0.4182,0.4244,0.4277,0.4309,0.4353,0.4412,0.4473,0.4539,0.4558,0.459,0.4628,0.4631,0.465,0.4664,0.4662,0.467,0.4673,0.4647,0.4647,0.4648,0.4649,0,0,0.3922,0.4029,0.4037,0.4073,0.4153,0.4193,0.4237,0.4302,0.4329,0.4385,0.4424,0.4499,0.4516,0.4556,0.4594,0.4619,0.4629,0.4635,0.4637,0.4632,0.4675,0.4661,0.4664,0.4649,0.465,0.4651,0.467,0,0.3936,0.4018,0.4068,0.413,0.4177,0.4225,0.4264,0.4317,0.4359,0.4404,0.4451,0.4502,0.4521,0.4546,0.4572,0.4622,0.4639,0.4622,0.4687,0.4689,0.4669,0.4668,0.4653,0.4668,0.4673,0.4674,0.4674,0,0.3964,0.4017,0.4084,0.4158,0.4179,0.4213,0.4276,0.4318,0.438,0.4408,0.4452,0.449,0.454,0.4548,0.4617,0.4604,0.4634,0.4663,0.4664,0.4673,0.4682,0.4677,0.4675,0.4677,0.4679,0.4679,0.4679,0,0.3937,0.4026,0.4077,0.4107,0.4195,0.4217,0.4255,0.4317,0.4352,0.4406,0.443,0.4489,0.4522,0.4567,0.462,0.4622,0.4684,0.4697,0.471,0.4708,0.4721,0.472,0.4724,0.4739,0.4739,0.4739,0.4739,0,0.3948,0.3987,0.4067,0.4098,0.4143,0.42,0.4243,0.4284,0.4338,0.4379,0.4424,0.4461,0.4529,0.4574,0.4616,0.4667,0.4681,0.4706,0.4717,0.4702,0.4699,0.4723,0.4724,0.474,0.474,0.4739,0.4739,0,0.3927,0.3982,0.4041,0.4118,0.4139,0.4168,0.4235,0.4268,0.4311,0.4362,0.4377,0.4445,0.4501,0.4558,0.4634,0.4662,0.4711,0.4726,0.469,0.4697,0.4706,0.4704,0.4726,0.4732,0.4742,0.4741,0.4741,0,0.3931,0.3962,0.4042,0.4072,0.4109,0.4156,0.4192,0.4249,0.4284,0.4356,0.438,0.4439,0.4489,0.4576,0.4633,0.4691,0.4707,0.4711,0.4716,0.4701,0.4708,0.4705,0.4709,0.4709,0.4708,0.4708,0.4708,0,0.3931,0.3957,0.4006,0.4064,0.4105,0.4155,0.4205,0.4227,0.4294,0.4332,0.4389,0.4427,0.4504,0.4562,0.4626,0.4666,0.4698,0.4705,0.4711,0.4697,0.4676,0.4688,0.4685,0.4705,0.4705,0.4705,0.4706,0.4706,0.3924,0.3953,0.4014,0.4067,0.4111,0.4157,0.4191,0.4238,0.4286,0.4353,0.4383,0.444,0.4501,0.459,0.4629,0.4675,0.4684,0.4692,0.4695,0.4696,0.4693,0.4667,0.4687,0.4687,0.4687,0.4687,0.4687,0,0.3927,0.3968,0.4016,0.4085,0.4127,0.4152,0.4209,0.4243,0.4292,0.4345,0.4394,0.4459,0.4515,0.4575,0.4635,0.466,0.4676,0.4674,0.4673,0.4682,0.4681,0.467,0.466,0.466,0.466,0.466,0.466,0.466,0.3934,0.3985,0.4017,0.409,0.4131,0.4187,0.4217,0.426,0.4303,0.4373,0.442,0.4458,0.4514,0.4578,0.4631,0.4647,0.4668,0.4661,0.4681,0.468,0.4682,0.4684,0.4674,0.4665,0.4665,0.4679,0.4679,0.4679]},{"header":{"parameterUnit":"m.s-1","parameterCategory":1,"la1":30.2991,"la2":30.254,"lo1":-89.0895,"lo2":-89.0444,"dy":0.0017,"dx":0.0017,"nx":28,"ny":28,"refTime":"2025-01-28T09:00:00:Z","depth":0,"parameterNumber":3,"parameterNumberName":"V-component_of_WINDS"},"data":[0,0,0,0,0,0,0,0,0,0,0,0,0,0,0,0,0,0,0,0,0,0,0,0,0,0,0,0,0,0,0,0,0,0,0,0,0,0,0,0,0,0,0,0,0,0,0,0,0,0,0,0,0,0,0,0,0,0,0.3471,0.3471,0,0.3435,0.3435,0.3434,0.3434,0.3435,0.3435,0.3436,0.3398,0.3397,0.3395,0,0,0,0,0,0,0,0,0,0,0,0,0,0.354,0.3538,0.3471,0.3471,0.347,0.3435,0.3435,0.3434,0.3434,0.3435,0.3435,0.3436,0.3399,0.3397,0.3395,0,0,0,0,0,0,0,0,0,0,0,0,0,0.3507,0.3538,0.3471,0.3466,0.3465,0.3435,0.3435,0.3434,0.3434,0.3435,0.3435,0.3436,0.3399,0.3397,0.3395,0.3368,0,0,0.3388,0.3387,0,0,0,0,0,0,0,0,0.3509,0.3505,0.3467,0.3466,0.3465,0.344,0.3445,0.3412,0.3434,0.3446,0.3436,0.3436,0.3411,0.3408,0.34,0.3366,0.3364,0.3388,0.3387,0.3386,0.3385,0,0,0,0,0,0,0,0.3511,0.3506,0.3457,0.3467,0.3466,0.3465,0.3461,0.3439,0.3425,0.3445,0.3445,0.344,0.3411,0.3402,0.3399,0.3364,0.3388,0.3386,0.3385,0.3384,0.3305,0.3304,0,0,0,0,0,0,0.3515,0.3508,0.3458,0.3456,0.3489,0.3463,0.3459,0.3447,0.3425,0.3423,0.344,0.3441,0.3405,0.3402,0.3398,0.3364,0.3386,0.3384,0.3383,0.3306,0.3305,0.3304,0,0,0,0,0,0,0.3516,0.351,0.346,0.3482,0.3475,0.3462,0.3448,0.3446,0.3437,0.3422,0.3419,0.3433,0.3406,0.3401,0.3375,0.3363,0.3383,0.3381,0.3307,0.3305,0.3304,0.3296,0,0,0,0,0,0,0.3518,0.3511,0.35,0.3482,0.3474,0.3438,0.3447,0.3445,0.3434,0.3434,0.3415,0.3412,0.3406,0.3378,0.3373,0.336,0.3379,0.3308,0.3306,0.3305,0.3298,0.3295,0.3293,0,0,0,0,0,0.3521,0.35,0.35,0.3494,0.3461,0.3437,0.3433,0.3426,0.3433,0.3422,0.3412,0.3413,0.3365,0.3376,0.337,0.3356,0.3308,0.3307,0.3305,0.3299,0.3296,0.3293,0,0,0,0,0,0,0.3517,0.3497,0.3497,0.347,0.3455,0.3437,0.3423,0.3423,0.3406,0.3407,0.3399,0.3395,0.3369,0.336,0.3372,0.3328,0.3337,0.3334,0.3335,0.3332,0.3329,0.3332,0.3378,0,0,0,0,0,0.3513,0.3496,0.3479,0.3456,0.3449,0.3437,0.3427,0.3423,0.3407,0.3401,0.3389,0.3374,0.3355,0.3343,0.3325,0.3296,0.3292,0.3284,0.3282,0.328,0.3277,0.3261,0.3257,0.3298,0.3298,0.3298,0,0,0.3505,0.3492,0.3481,0.3455,0.3443,0.3425,0.3432,0.3412,0.3398,0.3398,0.3373,0.3363,0.3346,0.3318,0.3306,0.331,0.3265,0.3277,0.3276,0.3274,0.3258,0.3254,0.3251,0.3296,0.3297,0.3297,0,0,0.348,0.3469,0.3448,0.3436,0.3418,0.3411,0.3406,0.3388,0.3381,0.3356,0.3355,0.3338,0.3307,0.3294,0.3283,0.3254,0.3254,0.3248,0.3235,0.3219,0.3216,0.3213,0.3202,0.3198,0.3245,0.3245,0.3245,0,0.3472,0.3444,0.3438,0.3418,0.3406,0.3405,0.3384,0.3373,0.335,0.3341,0.3347,0.3307,0.3295,0.3264,0.3257,0.3248,0.3242,0.325,0.3217,0.3214,0.3211,0.3201,0.3196,0.3245,0.3245,0.3245,0.3245,0,0.3435,0.3416,0.3401,0.3379,0.3366,0.3346,0.3336,0.3323,0.332,0.3312,0.3286,0.3272,0.3251,0.3243,0.324,0.3212,0.3215,0.3219,0.3228,0.3207,0.3197,0.3192,0.3244,0.3244,0.3244,0.3244,0,0,0.3407,0.3382,0.3376,0.3366,0.3346,0.3331,0.331,0.329,0.3279,0.3263,0.3245,0.3218,0.3221,0.3209,0.3205,0.3191,0.3168,0.3196,0.3196,0.3191,0.3135,0.3132,0.3128,0.3168,0.3167,0.3166,0.3136,0,0.338,0.3343,0.3337,0.3305,0.3287,0.3285,0.3267,0.3253,0.3244,0.3227,0.3218,0.3199,0.3205,0.3198,0.3184,0.3173,0.3156,0.3176,0.3151,0.315,0.3155,0.3122,0.3119,0.3092,0.3132,0.3132,0.3131,0,0.3343,0.3327,0.3293,0.3275,0.3267,0.3251,0.3231,0.3215,0.3199,0.3194,0.318,0.3177,0.3155,0.3166,0.3135,0.3149,0.3138,0.3131,0.313,0.3127,0.3139,0.3118,0.3083,0.3078,0.3125,0.3125,0.3126,0,0.3326,0.3295,0.327,0.3262,0.324,0.3229,0.3219,0.3203,0.3191,0.3174,0.3166,0.3147,0.3136,0.3121,0.3113,0.3121,0.3083,0.3093,0.3077,0.3078,0.3069,0.307,0.3031,0.3063,0.3063,0.3063,0.3063,0,0.3296,0.3275,0.3262,0.3247,0.3224,0.3216,0.3193,0.3184,0.317,0.3153,0.315,0.3134,0.3124,0.3107,0.31,0.3076,0.3071,0.3066,0.3064,0.3066,0.3067,0.3059,0.306,0.3062,0.3062,0.3063,0.3063,0,0.3272,0.3263,0.3236,0.3218,0.3213,0.3196,0.3181,0.3166,0.3157,0.3136,0.313,0.3117,0.3096,0.3087,0.3061,0.3057,0.3029,0.3029,0.3034,0.3033,0.3019,0.302,0.2974,0.2967,0.3004,0.3003,0.3003,0,0.3254,0.3238,0.3218,0.3206,0.3196,0.3178,0.3165,0.3157,0.3145,0.3124,0.3112,0.3091,0.3074,0.304,0.3028,0.3009,0.3008,0.2993,0.3005,0.3007,0.3007,0.3008,0.3006,0.2991,0.299,0.299,0.299,0,0.3222,0.3218,0.32,0.3181,0.3166,0.315,0.3135,0.3125,0.3115,0.31,0.3079,0.3066,0.3039,0.3019,0.2998,0.2988,0.2987,0.2986,0.2981,0.2983,0.2986,0.2984,0.3028,0.2987,0.2987,0.2987,0.2988,0.2988,0.32,0.3185,0.3169,0.3149,0.3137,0.3122,0.3107,0.3097,0.3079,0.3057,0.3053,0.3031,0.3014,0.2986,0.2975,0.2957,0.2961,0.2954,0.2952,0.2951,0.295,0.299,0.2953,0.2953,0.2953,0.2953,0.2954,0,0.3167,0.3156,0.3138,0.3117,0.3101,0.3102,0.3085,0.3071,0.3051,0.3036,0.3019,0.2994,0.2974,0.296,0.294,0.2928,0.2927,0.2923,0.2923,0.2921,0.2948,0.2954,0.2924,0.2924,0.2924,0.2924,0.2924,0.2924,0.3148,0.3124,0.3118,0.3087,0.3076,0.3054,0.3044,0.303,0.3018,0.299,0.2974,0.2965,0.295,0.2928,0.2909,0.2906,0.2898,0.2894,0.289,0.2916,0.2919,0.2922,0.2927,0.2892,0.2892,0.2865,0.2865,0.2864]}]]